TimeEDT,TemperatureF,Dew PointF,Humidity,Sea Level PressureIn,VisibilityMPH,Wind Direction,Wind SpeedMPH,Gust SpeedMPH,PrecipitationIn,Events,Conditions,WindDirDegrees,DateUTC
12:56 AM,75.0,69.1,82,30.00,10.0,SW,8.1,-,N/A,,Clear,220,2012-09-29 04:56:00
1:56 AM,75.0,69.1,82,29.99,10.0,WSW,6.9,-,N/A,,Clear,240,2012-09-29 05:56:00
2:56 AM,75.0,70.0,84,29.99,10.0,SW,8.1,-,N/A,,Clear,230,2012-09-29 06:56:00
3:56 AM,75.0,70.0,84,29.97,10.0,West,6.9,-,N/A,,Clear,260,2012-09-29 07:56:00
4:56 AM,73.0,70.0,90,29.97,10.0,West,4.6,-,N/A,,Clear,260,2012-09-29 08:56:00
5:56 AM,72.0,69.1,91,29.97,10.0,West,5.8,-,N/A,,Clear,270,2012-09-29 09:56:00
6:56 AM,71.1,69.1,93,29.98,9.0,WNW,4.6,-,N/A,,Clear,290,2012-09-29 10:56:00
7:56 AM,72.0,70.0,93,29.99,9.0,WNW,5.8,-,N/A,,Clear,300,2012-09-29 11:56:00
8:56 AM,72.0,69.1,91,29.99,7.0,NNW,6.9,-,N/A,,Clear,330,2012-09-29 12:56:00
9:03 AM,71.6,69.8,94,29.99,7.0,NNW,6.9,-,N/A,,Partly Cloudy,340,2012-09-29 13:03:00
9:56 AM,73.0,69.1,87,29.99,7.0,NNE,5.8,-,N/A,,Clear,20,2012-09-29 13:56:00
10:56 AM,75.0,69.1,82,29.98,8.0,ENE,5.8,-,N/A,,Clear,60,2012-09-29 14:56:00
11:56 AM,77.0,69.1,76,29.96,10.0,Variable,5.8,-,N/A,,Clear,0,2012-09-29 15:56:00
1:56 PM,75.9,69.1,79,29.92,9.0,SE,6.9,-,N/A,,Clear,140,2012-09-29 17:56:00
2:56 PM,75.0,70.0,84,29.93,6.0,Variable,5.8,-,N/A,,Haze,0,2012-09-29 18:56:00
3:02 PM,69.8,64.4,83,29.93,8.0,NNW,12.7,19.6,N/A,,Overcast,330,2012-09-29 19:02:00
3:10 PM,69.8,64.4,83,29.92,10.0,North,17.3,21.9,N/A,,Overcast,350,2012-09-29 19:10:00
3:17 PM,69.8,64.4,83,29.93,10.0,North,8.1,21.9,N/A,,Overcast,350,2012-09-29 19:17:00
3:34 PM,66.2,66.2,100,29.92,3.0,North,10.4,-,0.02,Rain,Light Rain,360,2012-09-29 19:34:00
3:37 PM,66.2,66.2,100,29.92,2.5,NNW,13.8,-,0.07,Rain,Rain,340,2012-09-29 19:37:00
3:40 PM,66.2,66.2,100,29.91,1.0,North,13.8,-,0.19,Rain,Heavy Rain,350,2012-09-29 19:40:00
3:42 PM,66.2,66.2,100,29.91,0.8,North,11.5,-,0.27,Rain,Heavy Rain,350,2012-09-29 19:42:00
3:56 PM,66.0,66.0,100,29.91,0.5,NE,3.5,-,0.66,Fog-Rain,Heavy Rain,40,2012-09-29 19:56:00
4:01 PM,66.2,66.2,100,29.91,1.5,NNE,3.5,-,0.00,Rain,Light Rain,30,2012-09-29 20:01:00
4:03 PM,66.2,66.2,100,29.90,4.0,NNE,4.6,-,0.00,Rain,Light Rain,30,2012-09-29 20:03:00
4:56 PM,68.0,66.9,96,29.90,7.0,Calm,Calm,-,0.00,,Overcast,0,2012-09-29 20:56:00
5:08 PM,69.8,66.2,88,29.89,8.0,Calm,Calm,-,N/A,,Overcast,0,2012-09-29 21:08:00
5:48 PM,69.8,66.2,88,29.89,8.0,NE,3.5,-,N/A,,Scattered Clouds,40,2012-09-29 21:48:00
5:56 PM,68.0,66.9,96,29.89,8.0,Calm,Calm,-,N/A,,Mostly Cloudy,0,2012-09-29 21:56:00
6:49 PM,68.0,66.2,94,29.89,5.0,Calm,Calm,-,0.02,Rain,Light Rain,0,2012-09-29 22:49:00
6:56 PM,66.9,66.0,97,29.89,3.0,Calm,Calm,-,0.06,Rain,Heavy Rain,0,2012-09-29 22:56:00
7:56 PM,66.9,66.9,100,29.90,9.0,Calm,Calm,-,0.04,,Overcast,0,2012-09-29 23:56:00
8:56 PM,66.9,66.0,97,29.89,7.0,South,3.5,-,N/A,,Scattered Clouds,170,2012-09-30 00:56:00
10:24 PM,66.2,66.2,100,29.89,8.0,North,3.5,-,N/A,,Partly Cloudy,360,2012-09-30 02:24:00
10:56 PM,66.9,64.9,93,29.90,10.0,North,3.5,-,N/A,,Mostly Cloudy,10,2012-09-30 02:56:00
11:17 PM,66.2,64.4,94,29.89,10.0,NE,3.5,-,N/A,,Mostly Cloudy,50,2012-09-30 03:17:00
11:56 PM,66.9,64.9,93,29.89,10.0,Calm,Calm,-,N/A,,Mostly Cloudy,0,2012-09-30 03:56:00